Regional Weather Roundup
Issued by NWS Green Bay, WI

Home | Current Version | Previous Version | Graphics & Text | Print | Product List | Glossary Off
Versions: 1 2 3 4 5 6 7 8 9 10 11 12 13 14 15 16 17 18 19 20 21 22 23 24 25 26 27 28 29 30 31 32 33 34 35 36 37 38 39 40 41 42 43 44 45 46 47 48 49 50

000
ASUS43 KGRB 182011
RWRGRB

NORTH-CENTRAL AND NORTHEAST WISCONSIN REGIONAL WEATHER ROUNDUP
NATIONAL WEATHER SERVICE GREEN BAY WI
200 PM CST WED JAN 18 2017

WIZ005-009-010>012-018-019-182100-
NORTH CENTRAL WISCONSIN

CITY           SKY/WX    TMP DP  RH WIND       PRES   REMARKS
IRONWOOD       SUNNY     46  26  45 SW8       29.78R
MANITOWISH WTR SUNNY     41  27  58 SW10      29.79S
ARBOR VITAE    SUNNY     44  29  55 W12       29.80S
EAGLE RIVER    SUNNY     42  26  53 SW13      29.79S
LAND O LAKES   SUNNY     46  26  45 W5        29.79S
RHINELANDER    SUNNY     41  30  65 SW14G20   29.83R
PHILLIPS       SUNNY     38  29  69 SW10      29.82S
ANTIGO         SUNNY     33  33 100 SW14      29.86S
TOMAHAWK       SUNNY     39  29  65 SW6       29.84S
MERRILL        SUNNY     38  31  76 SW9         N/A
$$

WIZ013-073-182100-
NORTHEAST WISCONSIN

CITY           SKY/WX    TMP DP  RH WIND       PRES   REMARKS
IRON MOUNTAIN  SUNNY     44  27  51 SW7       29.78F
MARINETTE      NOT AVBL
OCONTO         SUNNY     37  31  79 SW13G18   29.89S
$$

WIZ017-030-035>037-045-182100-
CENTRAL WISCONSIN

CITY           SKY/WX    TMP DP  RH WIND       PRES   REMARKS
MEDFORD        SUNNY     35  30  82 S9        29.87S
WAUSAU         SUNNY     38  30  73 SW12      29.88S
MOSINEE        SUNNY     37  34  87 SW17      29.89F
MARSHFIELD     SUNNY     39  30  70 SW9       29.88F
WISC RAPIDS    SUNNY     40  32  73 SW8       29.93S
STEVENS POINT  SUNNY     38  31  74 SW13G18   29.91S
WAUPACA        SUNNY     44  32  63 S7        29.93S
SHAWANO        SUNNY     41  32  70 SW8G16    29.89F
CLINTONVILLE   SUNNY     37  32  81 SW13      29.91S
WAUTOMA        SUNNY     41  31  67 S13       29.94F
$$

WIZ038-039-048-051-182100-
FOX VALLEY

CITY           SKY/WX    TMP DP  RH WIND       PRES   REMARKS
NWS GREEN BAY  MOSUNNY   36  33  89 S15       29.93F
APPLETON       PTSUNNY   34  34 100 S13G18    29.92F
OSHKOSH        MOSUNNY   35  31  85 S17G24    29.95F
FOND DU LAC    CLOUDY    36  30  79 SW13G21   29.98S
$$

WIZ022-050-052-182100-
EAST CENTRAL WISCONSIN

CITY           SKY/WX    TMP DP  RH WIND       PRES   REMARKS
EPHRAIM        FAIR      36  34  91 SW12      29.86S
WASHINGTON ISL FAIR      36  31  83 SW12      29.86R
STURGEON BAY   SUNNY     36  31  82 SW16G24   29.89F
MANITOWOC      SUNNY     39  33  79 SW8       29.94F
SHEBOYGAN      SUNNY     39  32  76 SW15      29.97S
$$

LMZ563-521-522-541>543-182100-
LAKESHORE

STATION/POSITION TIME  TEMP    WIND        PRES    VSBY  WAVE
                       AIR SEA DIR/SP/G                  HT/PER
                 (UTC) (F)     (DEG/KT/KT) (MB)    (MI)  (FT/S)
SHEBOYGAN LKSHOR 2000   36     180/ 15/ 16 1015.2F
KEWAUNEE LKSHORE 1948   36     210/  9/ 13 1013.2S
NORTHPORT PIER   1940   39     210/  4/ 13 1011.2F
SISTER BAY LKSHO 1935   43     220/ 11/ 13   N/A
MENOMINEE LKSHOR 1948          200/ 11/ 14 1010.9F
$$




USA.gov is the U.S. government's official web portal to all federal, state and local government web resources and services.